Location: Recife
(8.0585°S, 34.8848°W)
Time: 10:46:14
(UTC-03:00)

Vanguard 2 Rocket - Pass Details

Date: 18 April 2026
Orbit: 553 x 3286 km, 32.9° (Epoch: 8 May)

Event Time Altitude Azimuth Distance (km) Brightness Sun altitude
Rises 17:39:34 0° 278° (W) 6,920 14.2 -6.6°
Reaches altitude 10° 17:51:01 10° 311° (NW) 5,145 11.7 -9.4°
Maximum altitude 17:53:31 11° 321° (NW) 4,883 11.4 -10.0°
Drops below altitude 10° 17:55:50 10° 331° (NNW) 4,713 11.1 -10.6°
Sets 18:03:53 0° 7° (N) 4,858 10.7 -12.5°
